Location: Krasnoyarskiy Pitomnik
(51.1333°N, 71.6167°E)
Time: 09:04:11
(UTC+00:00)

Envisat - Pass Details

Date: 28 February 2024
Orbit: 762 x 764 km, 98.3° (Epoch: 21 April)

Event Time Altitude Azimuth Distance (km) Brightness Sun altitude
Rises 21:37:02 0° 24° (NNE) 3,244 7.1 -39.0°
Reaches altitude 10° 21:39:52 10° 40° (NE) 2,312 6.2 -38.7°
Enters shadow 21:42:34 20° 70° (ENE) 1,703 5.2 -38.4°
